Houston Hull, TX

11:16 AM CDT on October 14, 2019 (GMT -0500)
Sugar Land Municipal-Hull

Weather History for KSGR - August, 2019

Change the Weather History Date:

Thursday, August 1, 2019

  Actual Average Record
Temperature  
Mean Temperature 83 °F -  
Max Temperature 93 °F 94 °F 104 °F (1998)
Min Temperature 73 °F 74 °F 68 °F (1984)
Cooling Degree Days 18    
Growing Degree Days 33 (Base 50)    
Moisture  
Dew Point 75 °F    
Average Humidity 79    
Maximum Humidity 100    
Minimum Humidity 52    
Precipitation  
Precipitation 0.00 in - - ()
Sea Level Pressure  
Sea Level Pressure 30.01 in    
Wind  
Wind Speed 3 mph (SE)    
Max Wind Speed 13 mph    
Max Gust Speed -    
Visibility 10 miles    
Events      
Averages and records for this station are not official NWS values.
T = Trace of Precipitation, MM = Missing Value Source: NWS Daily Summary

Daily Weather History Graph

Daily Weather History Graph

Search for Another Location

Airport or City:

Astronomy

Aug. 01, 2019 Rise Set
Actual Time 6:42 AM CDT 8:15 PM CDT
Civil Twilight 6:16 AM CDT 8:41 PM CDT
Nautical Twilight 5:45 AM CDT 9:11 PM CDT
Astronomical Twilight 5:13 AM CDT 9:44 PM CDT
Moon 7:09 AM CDT (8/1) 9:04 PM CDT (8/1)
Length of Visible Light 14h 24m
Length of Day
13h 33m
New Moon, 1% of the Moon is Illuminated
Aug 1
New Moon
Aug 7
First Quarter
Aug 15
Full
Aug 23
Last Quarter
Aug 30
New

Hourly Weather History & Observations

Time (CDT) Temp. Heat Index Dew Point Humidity Pressure Visibility Wind Dir Wind Speed Gust Speed Precip Events Conditions
12:53 AM 78.1 °F - 75.9 °F 93% 30.00 in 10.0 mi South 3.5 mph - N/A   Clear
1:53 AM 75.9 °F - 75.0 °F 97% 30.00 in 10.0 mi Calm Calm - N/A   Clear
2:53 AM 75.9 °F - 75.0 °F 97% 29.99 in 10.0 mi Calm Calm - N/A   Clear
3:53 AM 75.0 °F - 75.0 °F 100% 30.00 in 10.0 mi Calm Calm - N/A   Clear
4:53 AM 75.0 °F - 75.0 °F 100% 30.01 in 10.0 mi Calm Calm - N/A   Clear
5:53 AM 75.0 °F - 75.0 °F 100% 30.01 in 9.0 mi North 3.5 mph - N/A   Clear
6:53 AM 73.9 °F - 73.9 °F 100% 30.03 in 10.0 mi North 3.5 mph - N/A   Clear
7:53 AM 79.0 °F - 78.1 °F 97% 30.04 in 10.0 mi Calm Calm - N/A   Clear
8:53 AM 82.0 °F 91.0 °F 78.1 °F 88% 30.05 in 10.0 mi Calm Calm - N/A   Clear
9:40 AM 82.9 °F 92.8 °F 78.1 °F 85% 30.05 in 10.0 mi West 3.5 mph - N/A   Mostly Cloudy
9:53 AM 82.9 °F 92.8 °F 78.1 °F 85% 30.05 in 10.0 mi Variable 3.5 mph - N/A   Scattered Clouds
10:10 AM 84.0 °F 92.6 °F 75.9 °F 76% 30.06 in 10.0 mi Calm Calm - N/A   Partly Cloudy
10:53 AM 87.1 °F 97.3 °F 75.9 °F 69% 30.06 in 10.0 mi Variable 3.5 mph - N/A   Clear
11:53 AM 89.1 °F 99.1 °F 75.0 °F 63% 30.06 in 10.0 mi NE 3.5 mph - N/A   Scattered Clouds
12:53 PM 90.0 °F 100.2 °F 75.0 °F 61% 30.05 in 10.0 mi North 3.5 mph - N/A   Mostly Cloudy
1:53 PM 90.0 °F 99.0 °F 73.9 °F 59% 30.03 in 10.0 mi ESE 6.9 mph - N/A   Mostly Cloudy
2:53 PM 93.0 °F 103.2 °F 73.9 °F 54% 30.01 in 10.0 mi ESE 6.9 mph - N/A   Scattered Clouds
3:53 PM 93.9 °F 104.0 °F 73.9 °F 52% 29.99 in 10.0 mi Calm Calm - N/A   Scattered Clouds
4:53 PM 91.0 °F 100.4 °F 73.9 °F 57% 29.98 in 10.0 mi ESE 8.1 mph - N/A   Mostly Cloudy
5:53 PM 91.0 °F 101.6 °F 75.0 °F 59% 29.96 in 10.0 mi SSE 6.9 mph - N/A   Overcast
6:53 PM 89.1 °F 99.1 °F 75.0 °F 63% 29.94 in 10.0 mi South 12.7 mph - N/A   Clear
7:53 PM 87.1 °F 96.3 °F 75.0 °F 67% 29.96 in 10.0 mi SSE 12.7 mph - N/A   Clear
8:53 PM 84.0 °F 91.9 °F 75.0 °F 74% 29.96 in 10.0 mi South 12.7 mph - N/A   Clear
9:53 PM 82.0 °F 88.6 °F 75.0 °F 79% 29.99 in 10.0 mi South 6.9 mph - N/A   Clear
10:53 PM 80.1 °F 85.1 °F 75.0 °F 85% 30.00 in 10.0 mi SSE 4.6 mph - N/A   Clear
11:53 PM 80.1 °F 85.1 °F 75.0 °F 85% 29.99 in 10.0 mi South 4.6 mph - N/A   Clear